Location: Azul
(36.7830°S, 59.8500°W)
Time: 01:06:54
(UTC-03:00)

NOAA 15 - Pass Details

Date: 30 October 2021
Orbit: 797 x 813 km, 98.7° (Epoch: 30 November)

Event Time Altitude Azimuth Distance (km) Brightness Sun altitude
Rises 22:11:37 0° 188° (S) 3,344 8.6 -27.8°
Reaches altitude 10° 22:15:00 10° 210° (SSW) 2,407 8.0 -28.3°
Maximum altitude 22:17:48 15° 242° (WSW) 2,091 7.5 -28.7°
Drops below altitude 10° 22:20:37 10° 275° (W) 2,398 7.4 -29.0°
Sets 22:23:59 0° 297° (WNW) 3,323 7.9 -29.5°
